AE0A Weather Reports


Display with metric or nautical units.
time (UTC)temp
F
wind
direction
speed
MPH
gust
MPH
rain 1hr
in
rain 24hr
in
rain mn
in
humidity
%
barometer
mb
20260906190000 71 55 1.0 3.0 0.05 0.05 0.05 92 1015.9
20260906184500 72 355 1.0 4.0 0.04 0.04 0.04 90 1016.6
20260906183002 72 263 3.0 9.0 0.01 0.01 0.01 88 1016.8
20260906181500 73 226 4.0 8.0 0.00 0.00 0.00 84 1017.0
20260906174503 73 245 5.0 12.0 0.00 0.00 0.00 84 1016.1
20260906170003 73 345 4.0 11.0 0.00 0.00 0.00 90 1015.8
20260906164502 74 326 6.0 12.0 0.00 0.00 0.00 87 1016.4
20260906163001 74 302 10.0 22.0 0.00 0.00 0.00 83 1016.1
20260906161502 75 297 5.0 15.0 0.00 0.00 0.00 89 1016.6
20260906154500 74 188 4.0 10.0 0.00 0.00 0.00 92 1015.5
20260906153001 74 200 1.0 4.0 0.00 0.00 0.00 93 1015.2
20260906151500 74 156 1.0 5.0 0.00 0.00 0.00 94 1014.6
20260906150003 74 84 0.0 2.0 0.00 0.00 0.00 95 1013.9
20260906144501 74 88 0.0 2.0 0.00 0.04 0.00 95 1013.8
20260906143001 74 137 0.0 1.0 0.00 0.04 0.00 95 1014.1
20260906140000 74 166 1.0 3.0 0.00 0.14 0.00 95 1014.2
20260906134500 74 202 3.0 6.0 0.00 0.14 0.00 95 1014.2
20260906132959 74 157 0.0 3.0 0.00 0.14 0.00 96 1014.6
20260906131500 74 157 1.0 5.0 0.00 0.14 0.00 96 1014.4
20260906130002 74 225 1.0 5.0 0.00 0.18 0.00 96 1014.4
20260906124501 74 28 0.0 1.0 0.00 0.18 0.00 96 1013.8
20260906121501 73 58 0.0 1.0 0.00 0.18 0.00 96 1013.2
20260906115959 73 58 0.0 1.0 0.00 0.20 0.00 96 1013.3
20260906113000 73 58 0.0 1.0 0.00 0.20 0.00 96 1013.3
20260906111500 73 58 0.0 0.0 0.00 0.20 0.00 96 1013.1
20260906110003 73 58 0.0 0.0 0.00 0.20 0.00 96 1013.1
20260906104501 73 58 0.0 0.0 0.00 0.33 0.00 96 1012.8
20260906103001 73 58 0.0 1.0 0.00 0.33 0.00 95 1012.8
20260906101501 73 58 0.0 1.0 0.00 0.33 0.00 95 1013.1
20260906100001 74 58 0.0 1.0 0.00 0.33 0.00 94 1012.9
20260906094501 74 58 0.0 1.0 0.00 0.33 0.00 94 1012.9
20260906092959 74 58 0.0 0.0 0.00 0.33 0.00 94 1012.8
20260906091501 74 58 0.0 1.0 0.00 0.33 0.00 94 1012.8
20260906090002 74 58 0.0 1.0 0.00 0.33 0.00 94 1013.0
20260906084500 74 57 0.0 1.0 0.00 0.33 0.00 94 1013.3
20260906083000 74 57 0.0 0.0 0.00 0.33 0.00 93 1013.5
20260906081500 74 57 0.0 0.0 0.00 0.33 0.00 93 1013.6
20260906080000 74 57 0.0 0.0 0.00 0.33 0.00 93 1013.5
20260906074459 74 57 0.0 0.0 0.00 0.33 0.00 92 1013.2
20260906073000 74 57 0.0 0.0 0.00 0.33 0.00 92 1013.2
20260906071501 74 57 0.0 1.0 0.00 0.33 0.00 92 1012.8
20260906070004 74 94 0.0 1.0 0.00 0.33 0.00 92 1013.3
20260906064500 74 76 0.0 0.0 0.00 0.33 0.00 91 1013.5
20260906063001 75 76 0.0 1.0 0.00 0.33 0.00 90 1013.2
20260906060001 75 95 0.0 1.0 0.00 0.33 0.00 90 1013.3
20260906054501 75 95 0.0 0.0 0.00 0.33 0.00 89 1013.3
20260906053001 75 95 0.0 0.0 0.00 0.33 0.00 89 1013.3
20260906051501 76 95 0.0 0.0 0.00 0.33 0.00 88 1013.3
20260906050001 76 95 0.0 1.0 0.00 0.33 0.33 87 1013.4
20260906044501 76 95 0.0 1.0 0.00 0.33 0.33 86 1013.2
20260906043001 77 95 0.0 2.0 0.00 0.33 0.33 86 1013.2
20260906041502 77 96 0.0 1.0 0.00 0.33 0.33 85 1013.3
20260906040003 77 96 0.0 1.0 0.00 0.33 0.33 83 1013.3
20260906034501 78 96 0.0 1.0 0.00 0.33 0.33 82 1013.5
20260906033001 79 160 0.0 0.0 0.00 0.33 0.33 80 1013.7
20260906031501 80 160 0.0 0.0 0.00 0.33 0.33 78 1013.7
20260906030002 80 160 0.0 0.0 0.00 0.33 0.33 77 1013.5
20260906023002 81 160 0.0 1.0 0.00 0.33 0.33 74 1013.3
20260906021501 82 159 0.0 3.0 0.00 0.33 0.33 73 1012.8
20260906020005 82 140 1.0 6.0 0.00 0.33 0.33 73 1012.4
20260906014502 83 135 0.0 1.0 0.00 0.33 0.33 72 1012.1
20260906013001 83 125 0.0 4.0 0.00 0.33 0.33 71 1012.1
20260906011502 84 144 0.0 3.0 0.00 0.33 0.33 70 1012.0
20260906010004 85 175 1.0 4.0 0.00 0.33 0.33 69 1012.0
20260906004501 86 136 1.0 6.0 0.00 0.33 0.33 68 1012.1
20260906003002 86 148 0.0 3.0 0.00 0.33 0.33 67 1012.1
20260906000001 88 160 3.0 8.0 0.00 0.33 0.33 63 1011.7
20260905234501 89 138 4.0 10.0 0.00 0.33 0.33 60 1011.4
20260905233001 90 130 3.0 11.0 0.00 0.33 0.33 59 1011.5
20260905230004 92 161 3.0 9.0 0.00 0.33 0.33 55 1011.6
20260905224502 92 138 5.0 14.0 0.00 0.33 0.33 53 1011.5
20260905223001 93 156 3.0 9.0 0.00 0.33 0.33 54 1011.6
20260905221501 93 167 6.0 15.0 0.00 0.33 0.33 54 1011.4
20260905220003 92 115 6.0 15.0 0.00 0.33 0.33 55 1011.3
20260905214502 91 146 6.0 14.0 0.00 0.33 0.33 54 1011.1
20260905213001 92 161 5.0 13.0 0.00 0.33 0.33 54 1011.1
20260905210002 92 156 3.0 12.0 0.00 0.33 0.33 52 1010.9
20260905204502 92 111 5.0 17.0 0.00 0.33 0.33 54 1010.8
20260905200002 90 180 9.0 27.0 0.00 0.33 0.33 57 1010.4
20260905194501 89 213 7.0 12.0 0.00 0.33 0.33 62 1010.2
20260905193000 88 173 8.0 18.0 0.00 0.33 0.33 62 1010.0